AKJ6602 VECC-VOBL

Flight info

Callsign AKJ6602
Flight time 2h 23m
Altitude 38000
Route KAKID2C KAKID A465 VVZ W47 BBZ W153 TELUV TELUV7E
Aircraft B38M/M-SDE1FGHILORVWXY/HB1

Departure

Time 2026-04-25 07:19
Airport Netaji Subhash Chandra Bose International Airport (VECC)

Arrival

Time 2026-04-25 09:42
Airport Kempegowda International Airport Bengaluru (VOBL)
Time Latitude Longitude Altitude Speed Heading
2026-04-25 06:40 22.64268 88.44051 31 ft 0 kts 276°
2026-04-25 07:03 22.64263 88.44076 31 ft 4 kts 291°
2026-04-25 07:03 22.64254 88.44103 31 ft 4 kts 281°
2026-04-25 07:03 22.64247 88.44130 31 ft 4 kts 300°
2026-04-25 07:03 22.64230 88.44146 31 ft 4 kts 353°
2026-04-25 07:04 22.64220 88.44147 31 ft 1 kts
2026-04-25 07:09 22.64221 88.44147 31 ft 0 kts
2026-04-25 07:09 22.64232 88.44148 31 ft 3 kts
2026-04-25 07:10 22.64266 88.44153 31 ft 6 kts
2026-04-25 07:10 22.64320 88.44160 31 ft 9 kts
2026-04-25 07:10 22.64395 88.44170 31 ft 12 kts
2026-04-25 07:10 22.64489 88.44182 31 ft 15 kts
2026-04-25 07:11 22.64603 88.44197 31 ft 18 kts
2026-04-25 07:11 22.64734 88.44214 31 ft 20 kts
2026-04-25 07:11 22.64854 88.44230 31 ft 18 kts
2026-04-25 07:11 22.64981 88.44247 31 ft 16 kts
2026-04-25 07:12 22.65069 88.44294 31 ft 15 kts 66°
2026-04-25 07:12 22.65231 88.44434 31 ft 18 kts
2026-04-25 07:12 22.65365 88.44450 31 ft 20 kts
2026-04-25 07:13 22.65513 88.44468 32 ft 22 kts
2026-04-25 07:13 22.65677 88.44487 31 ft 25 kts
2026-04-25 07:13 22.65845 88.44508 32 ft 18 kts 13°
2026-04-25 07:13 22.65960 88.44581 32 ft 20 kts 32°
2026-04-25 07:14 22.66090 88.44667 31 ft 24 kts 31°
2026-04-25 07:14 22.66133 88.44804 31 ft 16 kts 97°
2026-04-25 07:14 22.66155 88.44863 31 ft 8 kts
2026-04-25 07:14 22.66222 88.44868 30 ft 11 kts
2026-04-25 07:15 22.66317 88.44882 29 ft 16 kts
2026-04-25 07:15 22.66454 88.44898 28 ft 24 kts
2026-04-25 07:15 22.66628 88.44906 29 ft 18 kts 343°
2026-04-25 07:15 22.66756 88.44933 29 ft 20 kts
2026-04-25 07:16 22.66897 88.44950 31 ft 21 kts
2026-04-25 07:16 22.67048 88.44968 31 ft 23 kts
2026-04-25 07:16 22.67208 88.44987 33 ft 24 kts
2026-04-25 07:16 22.67373 88.45006 33 ft 19 kts
2026-04-25 07:17 22.67462 88.44985 33 ft 7 kts 20°
2026-04-25 07:17 22.67455 88.45019 32 ft 6 kts 174°
2026-04-25 07:17 22.67414 88.45009 33 ft 7 kts 191°
2026-04-25 07:17 22.67394 88.45007 33 ft 0 kts 184°
2026-04-25 07:18 22.67276 88.44995 33 ft 55 kts 186°
2026-04-25 07:18 22.66626 88.44918 29 ft 133 kts 186°
2026-04-25 07:19 22.65508 88.44800 227 ft 180 kts 184°
2026-04-25 07:19 22.64156 88.44638 811 ft 209 kts 186°
2026-04-25 07:19 22.62640 88.44465 1569 ft 231 kts 185°
2026-04-25 07:19 22.60977 88.44234 2130 ft 252 kts 190°
2026-04-25 07:20 22.59238 88.43737 2736 ft 268 kts 197°
2026-04-25 07:20 22.57464 88.43074 3619 ft 266 kts 200°
2026-04-25 07:20 22.55757 88.42389 4767 ft 266 kts 200°
2026-04-25 07:20 22.53963 88.41695 5545 ft 280 kts 199°
2026-04-25 07:21 22.52092 88.41016 6533 ft 282 kts 200°
2026-04-25 07:21 22.50244 88.40355 7683 ft 282 kts 201°
2026-04-25 07:21 22.48341 88.39679 8493 ft 294 kts 201°
2026-04-25 07:21 22.46370 88.38983 9371 ft 301 kts 200°
2026-04-25 07:22 22.44357 88.38272 10186 ft 310 kts 200°
2026-04-25 07:22 22.42245 88.37529 10770 ft 326 kts 200°
2026-04-25 07:22 22.40050 88.36756 11434 ft 337 kts 200°
2026-04-25 07:22 22.37813 88.35967 12348 ft 339 kts 200°
2026-04-25 07:23 22.35550 88.35170 13159 ft 344 kts 200°
2026-04-25 07:23 22.33258 88.34363 13950 ft 348 kts 200°
2026-04-25 07:23 22.30946 88.33549 14693 ft 352 kts 200°
2026-04-25 07:23 22.28607 88.32725 15452 ft 354 kts 200°
2026-04-25 07:24 22.26255 88.31898 16180 ft 357 kts 200°
2026-04-25 07:24 22.23883 88.31064 16908 ft 360 kts 200°
2026-04-25 07:24 22.21493 88.30224 17637 ft 362 kts 200°
2026-04-25 07:24 22.19087 88.29379 18295 ft 365 kts 200°
2026-04-25 07:25 22.16659 88.28526 18906 ft 367 kts 200°
2026-04-25 07:25 22.14223 88.27670 19508 ft 369 kts 200°
2026-04-25 07:25 22.11772 88.26810 20102 ft 372 kts 201°
2026-04-25 07:25 22.09316 88.25918 20684 ft 373 kts 202°
2026-04-25 07:26 22.07690 88.25309 21062 ft 375 kts 202°
2026-04-25 07:26 22.05216 88.24387 21634 ft 377 kts 202°
2026-04-25 07:26 22.02761 88.23475 22190 ft 380 kts 202°
2026-04-25 07:26 22.00256 88.22545 22742 ft 382 kts 202°
2026-04-25 07:27 21.97737 88.21611 23277 ft 384 kts 202°
2026-04-25 07:27 21.95649 88.20837 23662 ft 386 kts 203°
2026-04-25 07:27 21.93102 88.19892 24117 ft 388 kts 203°
2026-04-25 07:27 21.90543 88.18945 24572 ft 390 kts 203°
2026-04-25 07:28 21.87971 88.17992 25015 ft 392 kts 204°
2026-04-25 07:28 21.85383 88.17034 25455 ft 394 kts 204°
2026-04-25 07:28 21.82783 88.16072 25897 ft 396 kts 204°
2026-04-25 07:28 21.80167 88.15104 26321 ft 398 kts 204°
2026-04-25 07:29 21.77543 88.14134 26745 ft 400 kts 204°
2026-04-25 07:29 21.74903 88.13158 27163 ft 402 kts 205°
2026-04-25 07:29 21.72254 88.12179 27561 ft 404 kts 205°
2026-04-25 07:29 21.69584 88.11194 27955 ft 406 kts 205°
2026-04-25 07:30 21.66903 88.10203 28354 ft 408 kts 205°
2026-04-25 07:30 21.64285 88.09054 28733 ft 403 kts 216°
2026-04-25 07:30 21.62117 88.07221 29062 ft 396 kts 230°
2026-04-25 07:30 21.60144 88.05135 29364 ft 399 kts 229°
2026-04-25 07:31 21.58178 88.03023 29760 ft 400 kts 230°
2026-04-25 07:31 21.56220 88.00889 30097 ft 402 kts 230°
2026-04-25 07:31 21.54263 87.98735 30415 ft 403 kts 231°
2026-04-25 07:31 21.52308 87.96572 30749 ft 404 kts 231°
2026-04-25 07:32 21.50349 87.94400 31073 ft 405 kts 231°
2026-04-25 07:32 21.48386 87.92225 31399 ft 406 kts 231°
2026-04-25 07:32 21.46414 87.90039 31723 ft 408 kts 231°
2026-04-25 07:32 21.44440 87.87852 32033 ft 409 kts 231°
2026-04-25 07:33 21.42456 87.85655 32362 ft 410 kts 231°
2026-04-25 07:33 21.40475 87.83462 32661 ft 411 kts 231°
2026-04-25 07:33 21.38482 87.81256 32956 ft 413 kts 231°
2026-04-25 07:33 21.36479 87.79040 33280 ft 413 kts 231°
2026-04-25 07:34 21.34479 87.76829 33661 ft 412 kts 231°
2026-04-25 07:34 21.32485 87.74625 34031 ft 411 kts 231°
2026-04-25 07:34 21.30500 87.72432 34380 ft 409 kts 231°
2026-04-25 07:34 21.28519 87.70245 34713 ft 408 kts 231°
2026-04-25 07:35 21.26547 87.68068 35094 ft 405 kts 231°
2026-04-25 07:35 21.24587 87.65905 35439 ft 404 kts 231°
2026-04-25 07:35 21.22631 87.63747 35754 ft 403 kts 231°
2026-04-25 07:35 21.20680 87.61597 36063 ft 402 kts 231°
2026-04-25 07:36 21.18735 87.59453 36372 ft 401 kts 231°
2026-04-25 07:36 21.16797 87.57317 36662 ft 400 kts 231°
2026-04-25 07:36 21.14861 87.55186 36947 ft 399 kts 231°
2026-04-25 07:36 21.12928 87.53058 37228 ft 398 kts 231°
2026-04-25 07:37 21.11001 87.50937 37496 ft 397 kts 231°
2026-04-25 07:37 21.09078 87.48822 37760 ft 396 kts 231°
2026-04-25 07:37 21.07157 87.46711 37865 ft 396 kts 231°
2026-04-25 07:37 21.05239 87.44602 37841 ft 394 kts 231°
2026-04-25 07:38 21.01428 87.40416 37848 ft 393 kts 231°
2026-04-25 07:38 20.97612 87.36229 37849 ft 393 kts 231°
2026-04-25 07:39 20.93792 87.32039 37843 ft 393 kts 231°
2026-04-25 07:39 20.89974 87.27855 37845 ft 393 kts 231°
2026-04-25 07:40 20.86155 87.23673 37844 ft 393 kts 231°
2026-04-25 07:40 20.82332 87.19491 37841 ft 393 kts 231°
2026-04-25 07:41 20.78512 87.15314 37838 ft 393 kts 231°
2026-04-25 07:41 20.74715 87.11166 37840 ft 393 kts 231°
2026-04-25 07:42 20.70893 87.06994 37840 ft 393 kts 231°
2026-04-25 07:42 20.67070 87.02822 37838 ft 393 kts 230°
2026-04-25 07:43 20.63299 86.98614 37841 ft 392 kts 232°
2026-04-25 07:43 20.59586 86.94350 37839 ft 392 kts 232°
2026-04-25 07:44 20.55864 86.90088 37840 ft 392 kts 232°
2026-04-25 07:44 20.52143 86.85832 37840 ft 392 kts 232°
2026-04-25 07:45 20.48418 86.81574 37835 ft 393 kts 231°
2026-04-25 07:45 20.44692 86.77318 37838 ft 393 kts 231°
2026-04-25 07:46 20.40962 86.73062 37835 ft 393 kts 231°
2026-04-25 07:46 20.37232 86.68808 37836 ft 393 kts 231°
2026-04-25 07:47 20.33498 86.64553 37836 ft 393 kts 231°
2026-04-25 07:47 20.29764 86.60301 37838 ft 393 kts 231°
2026-04-25 07:48 20.26054 86.56081 37837 ft 393 kts 231°
2026-04-25 07:48 20.22312 86.51825 37840 ft 394 kts 231°
2026-04-25 07:49 20.18564 86.47568 37837 ft 394 kts 231°
2026-04-25 07:49 20.14813 86.43310 37839 ft 394 kts 231°
2026-04-25 07:50 20.11060 86.39052 37835 ft 395 kts 231°
2026-04-25 07:50 20.07299 86.34788 37840 ft 395 kts 231°
2026-04-25 07:51 20.03581 86.30478 37840 ft 395 kts 232°
2026-04-25 07:51 19.99891 86.26138 37843 ft 396 kts 232°
2026-04-25 07:52 19.96193 86.21800 37841 ft 396 kts 232°
2026-04-25 07:52 19.92488 86.17456 37839 ft 397 kts 232°
2026-04-25 07:53 19.88727 86.13158 37844 ft 397 kts 231°
2026-04-25 07:53 19.84944 86.08868 37849 ft 398 kts 231°
2026-04-25 07:54 19.81156 86.04572 37842 ft 399 kts 231°
2026-04-25 07:54 19.77361 86.00271 37845 ft 399 kts 231°
2026-04-25 07:55 19.73562 85.95968 37848 ft 400 kts 231°
2026-04-25 07:55 19.69755 85.91660 37848 ft 400 kts 231°
2026-04-25 07:56 19.65944 85.87351 37847 ft 401 kts 231°
2026-04-25 07:56 19.62127 85.83038 37845 ft 401 kts 231°
2026-04-25 07:57 19.58304 85.78721 37845 ft 402 kts 231°
2026-04-25 07:57 19.54477 85.74403 37847 ft 402 kts 231°
2026-04-25 07:58 19.50641 85.70079 37845 ft 403 kts 231°
2026-04-25 07:58 19.46801 85.65752 37843 ft 403 kts 231°
2026-04-25 07:59 19.42957 85.61425 37842 ft 403 kts 231°
2026-04-25 07:59 19.39138 85.57129 37843 ft 403 kts 230°
2026-04-25 08:00 19.35291 85.52804 37843 ft 403 kts 230°
2026-04-25 08:00 19.31441 85.48479 37837 ft 404 kts 230°
2026-04-25 08:01 19.27588 85.44154 37837 ft 404 kts 230°
2026-04-25 08:01 19.23735 85.39834 37835 ft 404 kts 230°
2026-04-25 08:02 19.19880 85.35513 37831 ft 404 kts 230°
2026-04-25 08:02 19.16025 85.31197 37835 ft 404 kts 230°
2026-04-25 08:03 19.12179 85.26875 37839 ft 403 kts 233°
2026-04-25 08:03 19.08829 85.22156 37834 ft 402 kts 236°
2026-04-25 08:04 19.05437 85.17458 37835 ft 402 kts 235°
2026-04-25 08:04 19.02026 85.12766 37836 ft 402 kts 235°
2026-04-25 08:05 18.98614 85.08079 37836 ft 403 kts 235°
2026-04-25 08:05 18.95197 85.03390 37831 ft 403 kts 235°
2026-04-25 08:06 18.91779 84.98703 37831 ft 403 kts 235°
2026-04-25 08:06 18.88385 84.94051 37835 ft 403 kts 235°
2026-04-25 08:07 18.84967 84.89370 37832 ft 402 kts 235°
2026-04-25 08:07 18.81589 84.84664 37834 ft 402 kts 236°
2026-04-25 08:08 18.78218 84.79947 37829 ft 403 kts 236°
2026-04-25 08:08 18.74846 84.75234 37831 ft 402 kts 235°
2026-04-25 08:09 18.71473 84.70523 37832 ft 402 kts 236°
2026-04-25 08:09 18.68095 84.65809 37834 ft 403 kts 235°
2026-04-25 08:10 18.64712 84.61092 37834 ft 403 kts 235°
2026-04-25 08:10 18.61327 84.56376 37835 ft 403 kts 235°
2026-04-25 08:11 18.57939 84.51657 37835 ft 404 kts 235°
2026-04-25 08:11 18.54549 84.46940 37837 ft 404 kts 235°
2026-04-25 08:12 18.51153 84.42220 37840 ft 404 kts 235°
2026-04-25 08:12 18.47755 84.37499 37841 ft 405 kts 235°
2026-04-25 08:13 18.44928 84.33574 37839 ft 405 kts 235°
2026-04-25 08:14 18.39820 84.26488 37835 ft 405 kts 235°
2026-04-25 08:14 18.36410 84.21763 37838 ft 405 kts 235°
2026-04-25 08:15 18.32995 84.17032 37837 ft 406 kts 235°
2026-04-25 08:15 18.29581 84.12306 37842 ft 406 kts 235°
2026-04-25 08:16 18.26181 84.07557 37837 ft 406 kts 235°
2026-04-25 08:16 18.22782 84.02812 37840 ft 406 kts 235°
2026-04-25 08:17 18.19380 83.98068 37832 ft 406 kts 235°
2026-04-25 08:17 18.15975 83.93322 37847 ft 407 kts 235°
2026-04-25 08:18 18.12568 83.88578 37847 ft 407 kts 235°
2026-04-25 08:18 18.09181 83.83864 37836 ft 407 kts 235°
2026-04-25 08:19 18.05771 83.79124 37844 ft 407 kts 235°
2026-04-25 08:19 18.02359 83.74382 37835 ft 407 kts 235°
2026-04-25 08:20 17.98948 83.69645 37831 ft 406 kts 235°
2026-04-25 08:20 17.95537 83.64912 37842 ft 406 kts 235°
2026-04-25 08:21 17.92128 83.60185 37828 ft 406 kts 235°
2026-04-25 08:21 17.88711 83.55451 37829 ft 407 kts 235°
2026-04-25 08:22 17.85291 83.50716 37827 ft 407 kts 235°
2026-04-25 08:22 17.81866 83.45977 37827 ft 407 kts 235°
2026-04-25 08:23 17.78438 83.41238 37833 ft 408 kts 235°
2026-04-25 08:23 17.75006 83.36497 37824 ft 408 kts 235°
2026-04-25 08:24 17.71570 83.31752 37829 ft 409 kts 235°
2026-04-25 08:24 17.68126 83.27000 37821 ft 409 kts 235°
2026-04-25 08:25 17.65355 83.21847 37817 ft 407 kts 245°
2026-04-25 08:25 17.62886 83.16505 37834 ft 408 kts 245°
2026-04-25 08:26 17.60436 83.11145 37837 ft 408 kts 245°
2026-04-25 08:26 17.57986 83.05780 37838 ft 408 kts 245°
2026-04-25 08:27 17.55533 83.00412 37828 ft 408 kts 245°
2026-04-25 08:27 17.53079 82.95048 37832 ft 408 kts 245°
2026-04-25 08:28 17.50622 82.89681 37836 ft 409 kts 245°
2026-04-25 08:28 17.48163 82.84313 37839 ft 409 kts 245°
2026-04-25 08:29 17.45702 82.78946 37829 ft 409 kts 245°
2026-04-25 08:29 17.43237 82.73576 37825 ft 409 kts 245°
2026-04-25 08:30 17.40789 82.68247 37834 ft 409 kts 245°
2026-04-25 08:30 17.38319 82.62874 37845 ft 409 kts 245°
2026-04-25 08:31 17.35849 82.57506 37832 ft 409 kts 245°
2026-04-25 08:31 17.33376 82.52135 37843 ft 410 kts 245°
2026-04-25 08:32 17.30901 82.46768 37842 ft 410 kts 245°
2026-04-25 08:32 17.28424 82.41397 37841 ft 409 kts 244°
2026-04-25 08:33 17.25947 82.36033 37839 ft 410 kts 244°
2026-04-25 08:33 17.23469 82.30670 37839 ft 410 kts 244°
2026-04-25 08:34 17.20988 82.25304 37831 ft 410 kts 244°
2026-04-25 08:34 17.18505 82.19939 37836 ft 410 kts 244°
2026-04-25 08:35 17.16020 82.14573 37831 ft 410 kts 244°
2026-04-25 08:35 17.13503 82.09227 37837 ft 410 kts 244°
2026-04-25 08:36 17.10984 82.03881 37828 ft 410 kts 244°
2026-04-25 08:36 17.08463 81.98532 37823 ft 410 kts 244°
2026-04-25 08:37 17.05942 81.93187 37834 ft 410 kts 244°
2026-04-25 08:37 17.03418 81.87841 37832 ft 410 kts 244°
2026-04-25 08:38 17.00892 81.82494 37797 ft 410 kts 244°
2026-04-25 08:38 16.98380 81.77184 37805 ft 410 kts 244°
2026-04-25 08:39 16.95851 81.71839 37805 ft 410 kts 244°
2026-04-25 08:39 16.93320 81.66496 37805 ft 410 kts 244°
2026-04-25 08:40 16.90787 81.61153 37819 ft 410 kts 244°
2026-04-25 08:40 16.88254 81.55813 37821 ft 410 kts 244°
2026-04-25 08:41 16.85719 81.50476 37819 ft 410 kts 244°
2026-04-25 08:41 16.83182 81.45136 37823 ft 410 kts 244°
2026-04-25 08:42 16.80644 81.39800 37820 ft 410 kts 244°
2026-04-25 08:42 16.78104 81.34464 37815 ft 411 kts 244°
2026-04-25 08:43 16.75563 81.29130 37819 ft 411 kts 244°
2026-04-25 08:43 16.73018 81.23792 37812 ft 411 kts 243°
2026-04-25 08:44 16.70473 81.18458 37817 ft 411 kts 243°
2026-04-25 08:44 16.67929 81.13130 37826 ft 411 kts 243°
2026-04-25 08:45 16.65380 81.07797 37817 ft 411 kts 243°
2026-04-25 08:45 16.62832 81.02468 37823 ft 411 kts 243°
2026-04-25 08:46 16.60281 80.97139 37817 ft 411 kts 243°
2026-04-25 08:46 16.57730 80.91813 37823 ft 411 kts 243°
2026-04-25 08:47 16.55194 80.86522 37831 ft 411 kts 243°
2026-04-25 08:47 16.52320 80.81350 37837 ft 410 kts 237°
2026-04-25 08:48 16.49170 80.76432 37833 ft 411 kts 237°
2026-04-25 08:48 16.45984 80.71494 37833 ft 411 kts 236°
2026-04-25 08:49 16.42796 80.66560 37818 ft 411 kts 236°
2026-04-25 08:49 16.39604 80.61624 37814 ft 411 kts 236°
2026-04-25 08:50 16.36408 80.56686 37826 ft 411 kts 236°
2026-04-25 08:50 16.33215 80.51754 37822 ft 411 kts 236°
2026-04-25 08:51 16.30019 80.46821 37822 ft 411 kts 236°
2026-04-25 08:51 16.26820 80.41888 37810 ft 411 kts 236°
2026-04-25 08:52 16.23621 80.36957 37820 ft 411 kts 236°
2026-04-25 08:52 16.20420 80.32028 37820 ft 411 kts 236°
2026-04-25 08:53 16.17218 80.27100 37812 ft 411 kts 236°
2026-04-25 08:53 16.14013 80.22170 37826 ft 411 kts 236°
2026-04-25 08:54 16.10810 80.17247 37822 ft 411 kts 236°
2026-04-25 08:54 16.07606 80.12325 37821 ft 411 kts 236°
2026-04-25 08:55 16.04401 80.07406 37824 ft 411 kts 236°
2026-04-25 08:55 16.01197 80.02491 37822 ft 411 kts 236°
2026-04-25 08:56 15.97991 79.97577 37812 ft 410 kts 236°
2026-04-25 08:56 15.94786 79.92668 37817 ft 410 kts 236°
2026-04-25 08:57 15.91606 79.87799 37813 ft 410 kts 236°
2026-04-25 08:57 15.88401 79.82895 37808 ft 410 kts 236°
2026-04-25 08:58 15.85194 79.77993 37815 ft 410 kts 236°
2026-04-25 08:58 15.81982 79.73086 37812 ft 411 kts 236°
2026-04-25 08:59 15.78771 79.68183 37804 ft 411 kts 236°
2026-04-25 08:59 15.75556 79.63278 37817 ft 411 kts 236°
2026-04-25 09:00 15.72337 79.58369 37806 ft 411 kts 236°
2026-04-25 09:00 15.69119 79.53466 37812 ft 411 kts 236°
2026-04-25 09:01 15.65899 79.48563 37805 ft 411 kts 236°
2026-04-25 09:01 15.63202 79.44458 37804 ft 411 kts 236°
2026-04-25 09:02 15.59979 79.39556 37810 ft 411 kts 236°
2026-04-25 09:02 15.56757 79.34659 37810 ft 411 kts 236°
2026-04-25 09:03 15.53560 79.29801 37812 ft 411 kts 236°
2026-04-25 09:03 15.50340 79.24912 37813 ft 411 kts 236°
2026-04-25 09:04 15.47118 79.20022 37823 ft 411 kts 236°
2026-04-25 09:04 15.43899 79.15128 37814 ft 411 kts 236°
2026-04-25 09:05 15.40681 79.10238 37817 ft 411 kts 236°
2026-04-25 09:05 15.37462 79.05348 37826 ft 411 kts 236°
2026-04-25 09:06 15.34240 79.00458 37827 ft 411 kts 236°
2026-04-25 09:06 15.31015 78.95567 37824 ft 411 kts 236°
2026-04-25 09:07 15.27788 78.90675 37819 ft 411 kts 236°
2026-04-25 09:07 15.24559 78.85783 37828 ft 412 kts 236°
2026-04-25 09:08 15.21328 78.80891 37822 ft 412 kts 236°
2026-04-25 09:08 15.18092 78.75997 37822 ft 412 kts 236°
2026-04-25 09:09 15.14856 78.71104 37821 ft 412 kts 236°
2026-04-25 09:09 15.11619 78.66216 37809 ft 412 kts 234°
2026-04-25 09:09 15.09704 78.64023 37802 ft 411 kts 219°
2026-04-25 09:10 15.07278 78.62447 37817 ft 414 kts 209°
2026-04-25 09:10 15.02101 78.59772 37808 ft 417 kts 208°
2026-04-25 09:11 14.94233 78.55929 37805 ft 417 kts 207°
2026-04-25 09:11 14.88977 78.53401 37804 ft 417 kts 207°
2026-04-25 09:12 14.83719 78.50876 37809 ft 416 kts 207°
2026-04-25 09:12 14.78501 78.48372 37815 ft 416 kts 207°
2026-04-25 09:13 14.73249 78.45853 37814 ft 416 kts 207°
2026-04-25 09:13 14.68003 78.43336 37817 ft 416 kts 207°
2026-04-25 09:14 14.62760 78.40814 37790 ft 413 kts 207°
2026-04-25 09:14 14.60194 78.39582 37515 ft 403 kts 207°
2026-04-25 09:14 14.57663 78.38366 36995 ft 400 kts 207°
2026-04-25 09:15 14.55143 78.37155 36456 ft 398 kts 207°
2026-04-25 09:15 14.52637 78.35952 35937 ft 396 kts 207°
2026-04-25 09:15 14.50145 78.34756 35440 ft 394 kts 207°
2026-04-25 09:15 14.47661 78.33563 34933 ft 393 kts 207°
2026-04-25 09:16 14.45189 78.32377 34434 ft 392 kts 207°
2026-04-25 09:16 14.42722 78.31193 33931 ft 391 kts 206°
2026-04-25 09:16 14.40255 78.30010 33372 ft 390 kts 206°
2026-04-25 09:16 14.37797 78.28832 32837 ft 389 kts 206°
2026-04-25 09:17 14.32921 78.26494 31871 ft 385 kts 206°
2026-04-25 09:17 14.30498 78.25333 31391 ft 384 kts 205°
2026-04-25 09:17 14.28078 78.24181 30903 ft 383 kts 204°
2026-04-25 09:18 14.25640 78.23060 30382 ft 383 kts 204°
2026-04-25 09:18 14.23209 78.21942 29920 ft 382 kts 204°
2026-04-25 09:18 14.20794 78.20830 29423 ft 380 kts 204°
2026-04-25 09:18 14.18388 78.19722 28942 ft 378 kts 204°
2026-04-25 09:19 14.16001 78.18609 28465 ft 376 kts 205°
2026-04-25 09:19 14.13632 78.17466 27992 ft 375 kts 205°
2026-04-25 09:19 14.11310 78.16351 27604 ft 372 kts 205°
2026-04-25 09:19 14.08944 78.15216 27167 ft 369 kts 205°
2026-04-25 09:20 14.06652 78.14117 26765 ft 367 kts 205°
2026-04-25 09:20 14.04314 78.12997 26348 ft 365 kts 205°
2026-04-25 09:20 14.02040 78.11908 25950 ft 364 kts 205°
2026-04-25 09:20 13.99748 78.10810 25539 ft 363 kts 205°
2026-04-25 09:21 13.97463 78.09716 25141 ft 361 kts 205°
2026-04-25 09:21 13.95186 78.08625 24737 ft 361 kts 205°
2026-04-25 09:21 13.92915 78.07539 24346 ft 360 kts 205°
2026-04-25 09:21 13.90646 78.06453 23951 ft 359 kts 205°
2026-04-25 09:22 13.88382 78.05370 23558 ft 359 kts 205°
2026-04-25 09:22 13.86120 78.04289 23112 ft 358 kts 205°
2026-04-25 09:22 13.83868 78.03212 22682 ft 356 kts 205°
2026-04-25 09:22 13.81636 78.02145 22291 ft 350 kts 205°
2026-04-25 09:23 13.79463 78.01106 21914 ft 341 kts 205°
2026-04-25 09:23 13.77334 78.00089 21554 ft 334 kts 205°
2026-04-25 09:23 13.75250 77.99093 21206 ft 327 kts 204°
2026-04-25 09:23 13.73212 77.98119 20858 ft 320 kts 204°
2026-04-25 09:24 13.71213 77.97165 20520 ft 313 kts 204°
2026-04-25 09:24 13.69251 77.96228 20188 ft 310 kts 204°
2026-04-25 09:24 13.67267 77.95281 19842 ft 317 kts 204°
2026-04-25 09:24 13.65247 77.94323 19458 ft 322 kts 204°
2026-04-25 09:25 13.63213 77.93361 19124 ft 321 kts 203°
2026-04-25 09:25 13.61187 77.92402 18794 ft 320 kts 203°
2026-04-25 09:25 13.59167 77.91446 18463 ft 319 kts 203°
2026-04-25 09:25 13.57151 77.90493 18102 ft 319 kts 203°
2026-04-25 09:26 13.55134 77.89539 17710 ft 318 kts 203°
2026-04-25 09:26 13.53126 77.88589 17354 ft 317 kts 203°
2026-04-25 09:26 13.51129 77.87645 17008 ft 315 kts 203°
2026-04-25 09:26 13.49140 77.86704 16667 ft 314 kts 203°
2026-04-25 09:27 13.47158 77.85767 16327 ft 313 kts 202°
2026-04-25 09:27 13.45180 77.84832 15987 ft 313 kts 202°
2026-04-25 09:27 13.43202 77.83898 15647 ft 312 kts 203°
2026-04-25 09:27 13.41230 77.82966 15328 ft 311 kts 202°
2026-04-25 09:28 13.39288 77.82049 15176 ft 304 kts 203°
2026-04-25 09:28 13.37388 77.81152 15011 ft 297 kts 203°
2026-04-25 09:28 13.35533 77.80276 14853 ft 290 kts 202°
2026-04-25 09:28 13.33725 77.79416 14670 ft 284 kts 205°
2026-04-25 09:29 13.32158 77.78178 14292 ft 288 kts 231°
2026-04-25 09:29 13.31247 77.76369 13981 ft 286 kts 258°
2026-04-25 09:29 13.31073 77.74354 13688 ft 283 kts 272°
2026-04-25 09:29 13.31064 77.72362 13338 ft 283 kts 271°
2026-04-25 09:30 13.31061 77.70336 12967 ft 284 kts 271°
2026-04-25 09:30 13.31067 77.68304 12632 ft 285 kts 272°
2026-04-25 09:30 13.31076 77.66261 12251 ft 288 kts 272°
2026-04-25 09:30 13.31090 77.64199 11880 ft 290 kts 271°
2026-04-25 09:31 13.31105 77.62127 11528 ft 291 kts 271°
2026-04-25 09:31 13.31121 77.60045 11183 ft 292 kts 271°
2026-04-25 09:31 13.31136 77.57982 10834 ft 286 kts 271°
2026-04-25 09:31 13.31150 77.55957 10480 ft 282 kts 271°
2026-04-25 09:32 13.31165 77.53965 10147 ft 276 kts 271°
2026-04-25 09:32 13.31180 77.52021 9926 ft 267 kts 271°
2026-04-25 09:32 13.31193 77.50163 9743 ft 254 kts 271°
2026-04-25 09:32 13.31190 77.48384 9554 ft 248 kts 268°
2026-04-25 09:33 13.31165 77.46590 9262 ft 254 kts 272°
2026-04-25 09:33 13.31211 77.44743 8858 ft 255 kts 272°
2026-04-25 09:33 13.31266 77.42925 8481 ft 255 kts 273°
2026-04-25 09:33 13.31333 77.41134 8089 ft 254 kts 273°
2026-04-25 09:34 13.31320 77.39322 7705 ft 254 kts 259°
2026-04-25 09:34 13.30630 77.37668 7258 ft 254 kts 229°
2026-04-25 09:34 13.29265 77.36586 6845 ft 247 kts 198°
2026-04-25 09:34 13.27618 77.36353 6453 ft 236 kts 167°
2026-04-25 09:35 13.26179 77.37002 6126 ft 222 kts 134°
2026-04-25 09:35 13.25276 77.38212 5995 ft 211 kts 118°
2026-04-25 09:35 13.24516 77.39528 5996 ft 216 kts 118°
2026-04-25 09:35 13.23747 77.40846 5933 ft 215 kts 118°
2026-04-25 09:36 13.22977 77.42151 5986 ft 209 kts 120°
2026-04-25 09:36 13.22634 77.42739 5975 ft 205 kts 119°
2026-04-25 09:36 13.21917 77.43979 6094 ft 201 kts 118°
2026-04-25 09:36 13.21226 77.45235 6109 ft 205 kts 112°
2026-04-25 09:37 13.20897 77.46645 6132 ft 202 kts 94°
2026-04-25 09:37 13.20869 77.48067 6105 ft 198 kts 90°
2026-04-25 09:37 13.20874 77.49462 6091 ft 192 kts 90°
2026-04-25 09:37 13.20867 77.50829 6083 ft 191 kts 90°
2026-04-25 09:38 13.20853 77.52185 6039 ft 188 kts 90°
2026-04-25 09:38 13.20851 77.53510 5825 ft 182 kts 90°
2026-04-25 09:38 13.20836 77.54789 5609 ft 175 kts 90°
2026-04-25 09:38 13.20825 77.56011 5391 ft 169 kts 90°
2026-04-25 09:39 13.20812 77.57205 5144 ft 166 kts 90°
2026-04-25 09:39 13.20803 77.58387 4964 ft 166 kts 90°
2026-04-25 09:39 13.20793 77.59564 4750 ft 165 kts 90°
2026-04-25 09:40 13.20770 77.61906 4319 ft 164 kts 90°
2026-04-25 09:40 13.20765 77.63046 4135 ft 156 kts 91°
2026-04-25 09:40 13.20758 77.64141 3894 ft 152 kts 91°
2026-04-25 09:40 13.20745 77.65214 3698 ft 149 kts 90°
2026-04-25 09:41 13.20733 77.66273 3508 ft 147 kts 91°
2026-04-25 09:41 13.20734 77.67304 3324 ft 144 kts 90°
2026-04-25 09:41 13.20729 77.68310 3154 ft 140 kts 90°
2026-04-25 09:41 13.20715 77.69269 3014 ft 112 kts 90°
2026-04-25 09:42 13.20712 77.69831 3013 ft 60 kts 90°
2026-04-25 09:42 13.20707 77.70249 3014 ft 57 kts 91°
2026-04-25 09:42 13.20634 77.70563 3015 ft 28 kts 122°
2026-04-25 09:42 13.20619 77.70588 3015 ft 0 kts 120°
2026-04-25 09:44 13.20618 77.70591 3014 ft 1 kts 120°
2026-04-25 09:44 13.20610 77.70605 3017 ft 3 kts 121°
2026-04-25 09:44 13.20593 77.70634 3014 ft 6 kts 120°
2026-04-25 09:44 13.20569 77.70676 3014 ft 9 kts 120°
2026-04-25 09:45 13.20545 77.70717 3014 ft 11 kts 120°
2026-04-25 09:45 13.20529 77.70804 3013 ft 14 kts 90°
2026-04-25 09:45 13.20528 77.70916 3013 ft 17 kts 90°
2026-04-25 09:45 13.20527 77.71050 3013 ft 20 kts 90°
2026-04-25 09:46 13.20526 77.71195 3013 ft 19 kts 90°
2026-04-25 09:46 13.20483 77.71276 3013 ft 14 kts 173°
2026-04-25 09:46 13.20380 77.71276 3014 ft 16 kts 180°
2026-04-25 09:46 13.20314 77.71276 3019 ft 12 kts 180°
2026-04-25 09:47 13.20261 77.71246 3015 ft 10 kts 253°
2026-04-25 09:47 13.20262 77.71170 3014 ft 12 kts 270°
2026-04-25 09:47 13.20261 77.71075 3014 ft 14 kts 269°
2026-04-25 09:47 13.20227 77.71039 3014 ft 5 kts 170°
2026-04-25 09:48 13.20198 77.71040 3014 ft 7 kts 180°
2026-04-25 09:48 13.20182 77.71039 3014 ft 1 kts 181°
2026-04-25 09:48 13.20175 77.71039 3017 ft 0 kts 181°